Regional Weather Roundup
Issued by NWS

Home | Current Version | Previous Version | Graphics & Text | Print | Product List | Glossary On
Versions: 1 2 3 4 5 6 7 8 9 10 11 12 13 14 15 16 17 18 19 20 21 22 23 24 25 26 27 28 29 30 31 32 33 34 35 36 37 38 39 40 41 42 43 44 45 46 47 48 49 50
000
ASUS45 KCYS 301710
RWRWY

WYOMING REGIONAL WEATHER ROUNDUP
NATIONAL WEATHER SERVICE CHEYENNE WY
1000 AM MST FRI JAN 30 2015

NOTE:  "FAIR" INDICATES FEW OR NO CLOUDS BELOW 12,000 FEET
WITH NO SIGNIFICANT WEATHER AND/OR OBSTRUCTIONS TO VISIBILITY.

WYZ001-301800-
YELLOWSTONE NATIONAL PARK

CITY           SKY/WX    TMP DP  RH WIND       PRES   REMARKS
LK YELLOWSTONE   N/A      4   3  96 CALM      30.25F
W YELLOWSTONE  NOT AVBL

$$
WYZ002>013-054>058-071-098>099-301800-
NORTHERN WYOMING

CITY           SKY/WX    TMP DP  RH WIND       PRES   REMARKS
JACKSON        SUNNY      9   7  92 N6        30.25F WCI  -1
CODY           FAIR      32  25  74 S3        30.21S
GREYBULL       FOG       24  23  96 CALM      30.26S VSB<1/4
WORLAND        FAIR      21  19  92 S5        30.24S WCI  15
SHERIDAN       FAIR      32  22  66 CALM      30.22S
BUFFALO        FAIR      42   9  25 NW3       30.22R
GILLETTE       FAIR      36  28  73 CALM      30.20R
HULETT           N/A    N/A N/A N/A MISG        N/A
NEWCASTLE      FAIR      36  25  64 NW6       30.20S WCI  31

$$
WYZ014>020-022>026-101>103-301800-
CENTRAL WYOMING

CITY           SKY/WX    TMP DP  RH WIND       PRES   REMARKS
BIG PINEY      FAIR      23  19  85 CALM      30.21S
PINEDALE       FAIR      19  10  68 NW3       30.21S
DUBOIS         FAIR      25   3  39 NW8       30.18F WCI  16
LANDER         FAIR      30  21  69 CALM      30.20R
RIVERTON       FAIR      29  27  92 CALM      30.22R
CASPER         FAIR      38  30  73 N5        30.20S WCI  34
DOUGLAS        FAIR      35  29  78 NW7       30.20F WCI  29

$$
WYZ021-027>030-104>119-301800-
SOUTHERN WYOMING

CITY           SKY/WX    TMP DP  RH WIND       PRES   REMARKS
EVANSTON       FAIR      30  26  85 N5        30.16S WCI  25
KEMMERER       FAIR      30  23  74 N8        30.18S WCI  23
FORT BRIDGER   FAIR      30  28  91 NE5       30.20S WCI  25
ROCK SPRINGS   FAIR      30  27  88 NE3       30.18S
DIXON          FAIR      37  32  84 CALM      30.20F
RAWLINS        CLOUDY    32  29  88 S3        30.20S
SARATOGA       CLOUDY    32  30  93 CALM      30.20S
LARAMIE        FAIR      33  26  75 NW3       30.19S
CHEYENNE       FAIR      44  24  45 N13       30.17S
TORRINGTON     FAIR      32  23  69 W5        30.19F WCI  27
PINE BLUFFS    FAIR      34  28  80 CALM      30.18S

$$



USA.gov is the U.S. government's official web portal to all federal, state and local government web resources and services.